Location: Gebenbach
(49.5378°N, 11.8735°E)
Time: 03:42:25
(UTC+00:00)

USA 215 - Pass Details

Date: 29 October 2020
Orbit: 1102 x 1106 km, 123.0° (Epoch: 23 November)

Event Time Altitude Azimuth Distance (km) Brightness Sun altitude
Exits shadow 16:22:47 - 68° (ENE) 3,354 5.1 -5.1°
Reaches altitude 10° 16:23:50 10° 66° (ENE) 2,965 4.9 -5.3°
Maximum altitude 16:30:01 47° 355° (N) 1,425 3.8 -6.3°
Drops below altitude 10° 16:36:13 10° 284° (WNW) 2,964 6.7 -7.2°
Sets 16:38:47 0° 279° (W) 3,922 7.7 -7.7°
